Regional Weather Roundup
Issued by NWS

Home | Current Version | Previous Version | Text Only | Print | Product List | Glossary Off
Versions: 1 2 3 4 5 6 7 8 9 10 11 12 13 14 15 16 17 18 19 20 21 22 23 24 25 26 27 28 29 30 31 32 33 34 35 36 37 38 39 40 41 42 43 44 45 46 47 48 49 50

000
ASUS43 KDTX 010001
RWRMI
MICHIGAN HOURLY REGIONAL WEATHER ROUNDUP
NATIONAL WEATHER SERVICE DETROIT/PONTIAC MI
700 PM EST SAT FEB 28 2015

NOTE: "FAIR" INDICATES FEW OR NO CLOUDS BELOW 12,000 FEET WITH NO
SIGNIFICANT WEATHER AND/OR OBSTRUCTION TO VISIBILITY.

MIZ047>049-052>055-059>063-066>070-074>076-081>083-010100-
SOUTHEAST LOWER MICHIGAN

CITY           SKY/WX    TMP DP  RH WIND       PRES   REMARKS
ADRIAN         PTCLDY    14   0  53 S3        30.61F
6HR MIN TEMP:  14; 6HR MAX TEMP:  18;

ALMA           CLEAR     15  -1  48 S3        30.58F
ANN ARBOR      CLEAR     14   2  58 S3        30.60F
BAD AXE        CLEAR     12   1  61 CALM      30.59F
6HR MIN TEMP:  12; 6HR MAX TEMP:  23;

CARO           CLEAR     13  -1  55 CALM      30.58F
DETROIT CITY   CLEAR     17   1  49 S8        30.63F WCI   7
6HR MIN TEMP:  17; 6HR MAX TEMP:  21;

DETROIT        PTCLDY    17   1  49 SE9       30.64F WCI   6
6HR MIN TEMP:  17; 6HR MAX TEMP:  21;

FLINT          CLEAR     19  -2  39 S7        30.58F WCI  10
6HR MIN TEMP:  19; 6HR MAX TEMP:  26;

GROSSE ILE     PTCLDY    14   3  62 SE3       30.63S
HILLSDALE      PTCLDY    15   1  53 CALM      30.56S
HOWELL         CLEAR     17   0  49 SE7       30.57F WCI   7
6HR MIN TEMP:  17; 6HR MAX TEMP:  22;


CITY           SKY/WX    TMP DP  RH WIND       PRES   REMARKS
JACKSON        CLEAR     15   1  53 S8        30.57F WCI   4
6HR MIN TEMP:  15; 6HR MAX TEMP:  20;

LAMBERTVILLE   CLEAR     19   3  49 E3        30.63S
LANSING        CLEAR     18  -1  43 S5        30.56F WCI  11
6HR MIN TEMP:  17; 6HR MAX TEMP:  21; 6HR PCP: TRACE;

LAPEER         FAIR      16  -3  41 S5        30.58F WCI   9
MASON          CLEAR     14  -3  47 SE7       30.57S WCI   4
6HR MIN TEMP:  14; 6HR MAX TEMP:  22;

MONROE         CLEAR     14   3  62 E5        30.61F WCI   6
MT. CLEMENS    PTCLDY    11   2  67 SE9       30.61F WCI  -2
6HR MIN TEMP:  11; 6HR MAX TEMP:  20;

PONTIAC        PTCLDY    18  -1  43 S3        30.57F
6HR MIN TEMP:  17; 6HR MAX TEMP:  21;

PORT HOPE        N/A     14  -1  51 CALM      30.60R
6HR MIN TEMP:  13; 6HR MAX TEMP:  22;

PORT HURON     CLEAR     14   3  62 SE5       30.63F WCI   6
TRI CITIES     CLEAR     17   0  47 S5        30.59F WCI  10
6HR MIN TEMP:  17; 6HR MAX TEMP:  22;

TROY           CLEAR     19   4  50 SE6       30.63S WCI  11
SAGINAW HB     CLEAR     18   3  53 SW3       30.59S
$$
MIZ043>046-050>051-056>058-064>065-071>073-077>080-010100-
SOUTHWEST LOWER MICHIGAN

CITY           SKY/WX    TMP DP  RH WIND       PRES   REMARKS
BATTLE CREEK   CLEAR     18   0  45 S5        30.56S WCI  11
6HR MIN TEMP:  16; 6HR MAX TEMP:  20;

BENTON HARBOR  PTCLDY    18   2  49 SE5       30.56F WCI  11
6HR MIN TEMP:  15; 6HR MAX TEMP:  20;

BIG RAPIDS     CLEAR     18   2  48 S3        30.52F
6HR MIN TEMP:  18; 6HR MAX TEMP:  24;

COLDWATER      PTCLDY    15  -1  49 CALM      30.57R
6HR MIN TEMP:  15; 6HR MAX TEMP:  19;

FREMONT        FAIR      17   2  53 S3        30.55S
HOLLAND        CLEAR     15   3  59 W3        30.57F
6HR MIN TEMP:  15; 6HR MAX TEMP:  22;

GRAND RAPIDS   PTCLDY    17  -2  43 S6        30.55F WCI   9
6HR MIN TEMP:  16; 6HR MAX TEMP:  21;

IONIA          FAIR      15  -1  50 SE6       30.56S WCI   6
KALAMAZOO      PTCLDY    18   1  47 S5        30.57S WCI  11
6HR MIN TEMP:  15; 6HR MAX TEMP:  20;

LUDINGTON      MOCLDY    18   9  68 S6        30.55F WCI  10
6HR MIN TEMP:  18; 6HR MAX TEMP:  21;

MARSHALL       CLEAR     14  -1  52 CALM      30.56F
MOUNT PLEASANT CLEAR     17   1  50 S6        30.57S WCI   8
MUSKEGON       PTCLDY    14   4  64 SW5       30.57F WCI   6
6HR MIN TEMP:  13; 6HR MAX TEMP:  19; 6HR PCP: TRACE;

SOUTH HAVEN    PTCLDY    20  -3  37 CALM      30.56F
$$
MIZ016>042-010100-
NORTHERN LOWER MICHIGAN

CITY           SKY/WX    TMP DP  RH WIND       PRES   REMARKS
ALPENA         CLEAR     25   0  33 SW3       30.51F
6HR MIN TEMP:  23; 6HR MAX TEMP:  28;

BEAVER ISLAND  CLEAR     18  11  75 S7G17     30.50S WCI   8
6HR MIN TEMP:  18; 6HR MAX TEMP:  19;

BELLAIRE       CLEAR     21   2  44 CALM      30.52S
6HR MIN TEMP:  21; 6HR MAX TEMP:  26;

CADILLAC       CLEAR     17   3  55 S6        30.47S WCI   8
CHARLEVOIX     CLEAR     16   9  73 CALM      30.54S
6HR MIN TEMP:  16; 6HR MAX TEMP:  22;

FRANKFORT      CLEAR     17  11  75 SW10G16   30.54S WCI   5
GAYLORD        CLEAR     18   2  49 S8        30.46S WCI   8
6HR MIN TEMP:  14; 6HR MAX TEMP:  23;

GRAYLING       CLEAR     20   1  45 S5        30.49S WCI  13
6HR MIN TEMP:  20; 6HR MAX TEMP:  26;

HARBOR SPRINGS PTCLDY    17   9  72 W3        30.52R
HOUGHTON LAKE  CLEAR     17   2  51 S10       30.51R WCI   5
6HR MIN TEMP:  17; 6HR MAX TEMP:  23;

MANISTEE       CLEAR     18   7  62 SW5       30.54F WCI  11
OSCODA         CLEAR     18   5  57 S12       30.56S WCI   5
PELLSTON       PTCLDY    16   8  71 W5        30.51F WCI   9
6HR MIN TEMP:  15; 6HR MAX TEMP:  22;

ROGERS CITY    CLEAR     14   8  78 CALM      30.52F
TRAVERSE CITY  CLEAR     19   3  49 CALM      30.51S
6HR MIN TEMP:  19; 6HR MAX TEMP:  27;

$$
MIZ007>008-015-010100-
EASTERN UPPER MICHIGAN

CITY           SKY/WX    TMP DP  RH WIND       PRES   REMARKS
KINROSS        PTCLDY    16   9  73 S6        30.49S WCI   7
6HR MIN TEMP:  16; 6HR MAX TEMP:  23;

MACKINAC ISLAN PTCLDY    15  10  79 SW9G18    30.50S WCI   3
6HR MIN TEMP:  15; 6HR MAX TEMP:  19;

NEWBERRY       PTCLDY    15   9  79 S12G17    30.44F WCI   1
6HR MIN TEMP:  15; 6HR MAX TEMP:  19;

S. S. MARIE    PTCLDY    15   3  59 S5        30.49S WCI   8
6HR MIN TEMP:  15; 6HR MAX TEMP:  21;

MUNISING         N/A     19   1  45 S10       30.41F WCI   7
6HR MIN TEMP:  19; 6HR MAX TEMP:  26;

$$
MIZ004>006-011>014-085-010100-
CENTRAL UPPER MICHIGAN

CITY           SKY/WX    TMP DP  RH WIND       PRES   REMARKS
MANISTIQUE     CLEAR     20  12  70 S14       30.46S WCI   7
6HR MIN TEMP:  18; 6HR MAX TEMP:  20;

ESCANABA       CLEAR     16   3  57 SW13G21   30.47S WCI   2
6HR MIN TEMP:  14; 6HR MAX TEMP:  18;

MENOMINEE      CLEAR     16  -2  45 SW9       30.47F WCI   4
6HR MIN TEMP:  16; 6HR MAX TEMP:  19;

SAWYER-GWINN   CLEAR     18   0  45 S13       30.34F WCI   4
$$
MIZ001>003-009>011-084-010100-
WESTERN UPPER MICHIGAN

CITY           SKY/WX    TMP DP  RH WIND       PRES   REMARKS
IRON MOUNTAIN  CLEAR     19  -1  41 S12       30.37S WCI   7
6HR MIN TEMP:  18; 6HR MAX TEMP:  25; 6HR PCP: TRACE;

HOUGHTON       CLEAR     22  -4  32 SW5       30.29F WCI  16
6HR MIN TEMP:  17; 6HR MAX TEMP:  25;

COPPER HARBOR    N/A     14   6  70 CALM      30.33F
6HR MIN TEMP:  14; 6HR MAX TEMP:  23;

IRONWOOD       CLEAR     18  -4  38 S10G20    30.28F WCI   6
6HR MIN TEMP:  18; 6HR MAX TEMP:  21;

$$

ABBREVIATIONS USED IN REMARKS
   TC - TEMPERATURE IN CELSIUS
  WCI - WIND CHILL INDEX
   HX - HEAT INDEX
  VSB - VISIBILITY



USA.gov is the U.S. government's official web portal to all federal, state and local government web resources and services.